ARIANE 3 DEB

基本信息
目录编号:
24712
目录名称:
ARIANE 3 DEB
国际标识:
1986-026G
轨道中心:
EARTH
物体状态:
在轨
发射日期:
1986-03-28 UTC
轨道信息
数据来源: 国际轨道数据
星历时间: 2026-07-13T15:03:56+0800
半长轴: 19190.75km
偏心率: 0.6461404
轨道倾角: 8.621°
近地点辐角: 244.465°
升交点赤经: 162.197°
平近点角: 37.248°
近地点: 412.694km
远地点: 25212.532km
周期: 440.958分钟
每日圈数: 3.265614
详细信息
发射场:
FRGUI
轨道高度:
LEO
数据来源:
AOE Integration Group
参考系:
TEME
时间系统:
UTC
历元类型:
SGP4
2D轨道图
3D轨道图
轨道高度分析图
轨道倾角分析图
轨道综合分析图
查看轨道综合分析图